When you browse on this site, cookies collect data to enhance your experience and personalize the content and advertising you see.
Visit our Privacy Policy to learn more. By continuing to use the site, you agree to this use of cookies and data.
  • In Austria
  • List of Countries
  • For 7 days
  • Water Temperature
  • Satellite Maps
  • Weather Map
  • News
  • Weather Widgets
  • user-avatar
    Login

    Hourly Weather Znamenka

    Today, 25 May, Saturday

    Time Temperature Precipitation Wind Pressure Humidity
    00:00 +16°C° 0 mm 1 mps 745 mmHg 92%
    01:00 +15°C° 0 mm 1 mps 745 mmHg 93%
    02:00 +14°C° 0 mm 1 mps 745 mmHg 94%
    03:00 +14°C° 0 mm 1 mps 745 mmHg 94%
    04:00 +14°C° 0 mm 1 mps 745 mmHg 94%
    05:00 +14°C° 0 mm 1 mps 745 mmHg 95%
    06:00 +16°C° 0 mm 2 mps 745 mmHg 89%
    07:00 +17°C° 0 mm 2 mps 745 mmHg 84%
    08:00 +19°C° 0 mm 2 mps 745 mmHg 78%
    09:00 +20°C° 0.1 mm 2 mps 745 mmHg 73%
    10:00 +21°C° 0.1 mm 3 mps 745 mmHg 67%
    11:00 +24°C° 0.1 mm 3 mps 745 mmHg 62%
    12:00 +24°C° 0.6 mm 3 mps 745 mmHg 62%
    13:00 +23°C° 0.6 mm 4 mps 745 mmHg 62%
    14:00 +23°C° 0.6 mm 4 mps 744 mmHg 63%
    15:00 +23°C° 0.2 mm 4 mps 744 mmHg 61%
    16:00 +24°C° 0.2 mm 3 mps 744 mmHg 59%
    17:00 +24°C° 0.2 mm 3 mps 744 mmHg 57%
    18:00 +21°C° 0 mm 3 mps 744 mmHg 63%
    19:00 +19°C° 0 mm 2 mps 744 mmHg 68%
    20:00 +17°C° 0 mm 2 mps 744 mmHg 73%
    21:00 +16°C° 0 mm 2 mps 745 mmHg 75%
    22:00 +15°C° 0 mm 2 mps 745 mmHg 77%
    23:00 +14°C° 0 mm 2 mps 745 mmHg 79%

    Tomorrow, 26 May, Sunday

    Time Temperature Precipitation Wind Pressure Humidity
    00:00 +14°C° 0 mm 2 mps 745 mmHg 82%
    01:00 +14°C° 0 mm 2 mps 746 mmHg 85%
    02:00 +13°C° 0 mm 2 mps 746 mmHg 88%
    03:00 +13°C° 0 mm 2 mps 746 mmHg 90%
    04:00 +13°C° 0 mm 2 mps 746 mmHg 92%
    05:00 +12°C° 0 mm 2 mps 746 mmHg 94%
    06:00 +14°C° 0 mm 2 mps 747 mmHg 85%
    07:00 +15°C° 0 mm 2 mps 747 mmHg 77%
    08:00 +17°C° 0 mm 2 mps 747 mmHg 68%
    09:00 +18°C° 0 mm 3 mps 747 mmHg 64%
    10:00 +19°C° 0 mm 4 mps 747 mmHg 60%
    11:00 +19°C° 0 mm 4 mps 747 mmHg 57%
    12:00 +20°C° 0 mm 4 mps 747 mmHg 56%
    13:00 +20°C° 0 mm 5 mps 747 mmHg 55%
    14:00 +21°C° 0 mm 5 mps 747 mmHg 53%
    15:00 +21°C° 0 mm 5 mps 747 mmHg 54%
    16:00 +21°C° 0 mm 5 mps 747 mmHg 54%
    17:00 +21°C° 0 mm 5 mps 746 mmHg 55%
    18:00 +19°C° 0 mm 4 mps 747 mmHg 62%
    19:00 +18°C° 0 mm 3 mps 747 mmHg 69%
    20:00 +16°C° 0 mm 2 mps 747 mmHg 77%
    21:00 +15°C° 0 mm 2 mps 747 mmHg 81%
    22:00 +15°C° 0 mm 2 mps 747 mmHg 85%
    23:00 +14°C° 0 mm 2 mps 747 mmHg 89%

    Day after tomorrow, 27 May, Monday

    Time Temperature Precipitation Wind Pressure Humidity
    00:00 +13°C° 0 mm 2 mps 747 mmHg 91%
    01:00 +13°C° 0 mm 2 mps 748 mmHg 93%
    02:00 +13°C° 0 mm 2 mps 748 mmHg 95%
    03:00 +13°C° 0 mm 2 mps 748 mmHg 95%
    04:00 +13°C° 0 mm 2 mps 748 mmHg 96%
    05:00 +13°C° 0 mm 2 mps 748 mmHg 96%
    06:00 +15°C° 0 mm 2 mps 748 mmHg 86%
    07:00 +17°C° 0 mm 3 mps 748 mmHg 76%
    08:00 +20°C° 0 mm 3 mps 748 mmHg 66%
    09:00 +21°C° 0 mm 3 mps 748 mmHg 60%
    10:00 +23°C° 0 mm 4 mps 748 mmHg 54%
    11:00 +25°C° 0 mm 4 mps 748 mmHg 48%
    12:00 +26°C° 0 mm 4 mps 748 mmHg 46%
    13:00 +27°C° 0 mm 4 mps 748 mmHg 45%
    14:00 +27°C° 0 mm 4 mps 747 mmHg 44%
    15:00 +27°C° 0 mm 4 mps 747 mmHg 47%
    16:00 +27°C° 0 mm 4 mps 747 mmHg 50%
    17:00 +27°C° 0 mm 4 mps 747 mmHg 53%
    18:00 +25°C° 0.1 mm 4 mps 747 mmHg 63%
    19:00 +22°C° 0.1 mm 3 mps 747 mmHg 73%
    20:00 +20°C° 0.1 mm 2 mps 747 mmHg 83%
    21:00 +19°C° 0.1 mm 2 mps 747 mmHg 85%
    22:00 +19°C° 0.1 mm 2 mps 748 mmHg 88%
    23:00 +18°C° 0.1 mm 2 mps 748 mmHg 91%

    28 May, Tuesday

    Time Temperature Precipitation Wind Pressure Humidity
    00:00 +18°C° 0 mm 2 mps 748 mmHg 92%
    01:00 +17°C° 0 mm 2 mps 748 mmHg 92%
    02:00 +17°C° 0 mm 2 mps 747 mmHg 93%
    03:00 +17°C° 0 mm 2 mps 747 mmHg 93%
    04:00 +17°C° 0 mm 2 mps 747 mmHg 93%
    05:00 +17°C° 0 mm 2 mps 747 mmHg 93%
    06:00 +18°C° 0 mm 2 mps 747 mmHg 88%
    07:00 +20°C° 0 mm 2 mps 747 mmHg 83%
    08:00 +23°C° 0 mm 2 mps 747 mmHg 78%
    09:00 +24°C° 0.2 mm 3 mps 747 mmHg 72%
    10:00 +26°C° 0.2 mm 4 mps 747 mmHg 66%
    11:00 +27°C° 0.2 mm 5 mps 746 mmHg 60%
    12:00 +27°C° 0.5 mm 5 mps 746 mmHg 64%
    13:00 +27°C° 0.5 mm 4 mps 746 mmHg 67%
    14:00 +26°C° 0.5 mm 4 mps 745 mmHg 70%
    15:00 +27°C° 0.1 mm 5 mps 745 mmHg 65%
    16:00 +27°C° 0.1 mm 5 mps 745 mmHg 60%
    17:00 +27°C° 0.1 mm 5 mps 745 mmHg 56%
    18:00 +26°C° 0 mm 5 mps 745 mmHg 62%
    19:00 +23°C° 0 mm 4 mps 745 mmHg 67%
    20:00 +22°C° 0 mm 3 mps 745 mmHg 73%
    21:00 +21°C° 0 mm 4 mps 745 mmHg 73%
    22:00 +21°C° 0 mm 4 mps 745 mmHg 73%
    23:00 +20°C° 0 mm 4 mps 745 mmHg 73%

    29 May, Wednesday

    Time Temperature Precipitation Wind Pressure Humidity
    00:00 +20°C° 0 mm 4 mps 745 mmHg 73%
    01:00 +19°C° 0 mm 4 mps 745 mmHg 74%
    02:00 +18°C° 0 mm 4 mps 744 mmHg 74%
    03:00 +18°C° 0 mm 4 mps 744 mmHg 74%
    04:00 +17°C° 0 mm 4 mps 744 mmHg 75%
    05:00 +17°C° 0 mm 4 mps 744 mmHg 75%
    06:00 +18°C° 0 mm 4 mps 744 mmHg 72%
    07:00 +19°C° 0 mm 5 mps 744 mmHg 69%
    08:00 +21°C° 0 mm 5 mps 744 mmHg 66%
    09:00 +22°C° 0 mm 5 mps 744 mmHg 63%
    10:00 +25°C° 0 mm 5 mps 744 mmHg 61%
    11:00 +26°C° 0 mm 5 mps 744 mmHg 58%
    12:00 +27°C° 0.2 mm 6 mps 744 mmHg 58%
    13:00 +28°C° 0.2 mm 6 mps 744 mmHg 58%
    14:00 +28°C° 0.2 mm 6 mps 744 mmHg 57%
    15:00 +27°C° 0.9 mm 6 mps 744 mmHg 63%
    16:00 +26°C° 0.9 mm 5 mps 744 mmHg 69%
    17:00 +25°C° 0.9 mm 4 mps 744 mmHg 75%
    18:00 +24°C° 0.3 mm 3 mps 744 mmHg 80%
    19:00 +22°C° 0.3 mm 3 mps 745 mmHg 84%
    20:00 +20°C° 0.3 mm 2 mps 745 mmHg 89%
    21:00 +20°C° 0 mm 2 mps 745 mmHg 91%
    22:00 +19°C° 0 mm 2 mps 745 mmHg 93%
    23:00 +18°C° 0 mm 2 mps 746 mmHg 95%

    30 May, Thursday

    Time Temperature Precipitation Wind Pressure Humidity
    00:00 +18°C° 0 mm 2 mps 746 mmHg 96%
    01:00 +17°C° 0 mm 2 mps 747 mmHg 97%
    02:00 +17°C° 0 mm 2 mps 747 mmHg 98%
    03:00 +17°C° 0 mm 2 mps 747 mmHg 97%
    04:00 +17°C° 0 mm 3 mps 748 mmHg 96%
    05:00 +17°C° 0 mm 3 mps 748 mmHg 95%
    06:00 +17°C° 0 mm 3 mps 749 mmHg 94%
    07:00 +17°C° 0 mm 3 mps 749 mmHg 93%
    08:00 +17°C° 0 mm 3 mps 750 mmHg 92%
    09:00 +17°C° 0 mm 3 mps 750 mmHg 88%
    10:00 +18°C° 0 mm 3 mps 751 mmHg 83%
    11:00 +19°C° 0 mm 3 mps 751 mmHg 79%
    12:00 +19°C° 0 mm 3 mps 751 mmHg 76%
    13:00 +20°C° 0 mm 3 mps 751 mmHg 73%
    14:00 +20°C° 0 mm 3 mps 752 mmHg 69%
    15:00 +20°C° 0 mm 3 mps 752 mmHg 70%
    16:00 +20°C° 0 mm 3 mps 752 mmHg 71%
    17:00 +20°C° 0 mm 3 mps 752 mmHg 71%
    18:00 +19°C° 0 mm 2 mps 752 mmHg 77%
    19:00 +18°C° 0 mm 2 mps 752 mmHg 82%
    20:00 +17°C° 0 mm 2 mps 752 mmHg 87%
    21:00 +16°C° 0 mm 2 mps 752 mmHg 90%
    22:00 +15°C° 0 mm 2 mps 752 mmHg 93%
    23:00 +14°C° 0 mm 1 mps 752 mmHg 96%
    Show more